GEFSNE_500_meanwind_138.txt.gz
Wind_Speed
11 11 11 10 10 10 9 8 7 7 7 7 7 6 5 5 5 6 6 7 8 9 10 12 14 15 16 18 19 19 20 22 22 22 22 23 23 22
11 10 10 10 10 10 9 9 9 8 8 8 8 8 7 7 7 7 7 8 9 10 11 12 13 15 16 17 19 20 22 23 24 24 24 25 25 25
11 10 10 10 10 10 10 10 10 10 10 10 9 9 9 9 9 9 10 11 12 13 14 14 15 16 18 19 20 21 22 23 25 25 26 26 26 27
11 11 11 11 11 11 11 11 12 12 11 11 11 11 11 11 11 12 12 13 14 15 16 17 18 18 19 20 21 22 23 24 25 26 27 28 28 29
12 12 12 12 13 13 13 13 13 13 13 13 13 13 13 13 13 14 15 16 16 17 18 19 20 20 21 22 23 24 25 26 27 28 29 30 30 31
13 13 13 14 14 14 14 15 15 16 16 16 16 16 16 17 17 17 17 18 19 21 21 22 23 23 24 25 25 26 27 28 29 30 30 31 32 32
14 15 15 16 16 16 16 17 18 18 18 18 19 19 19 19 20 20 21 22 23 24 25 25 26 26 27 28 28 28 29 30 30 31 32 33 33 34
16 16 17 18 18 19 19 20 20 20 21 21 22 22 22 23 23 24 25 26 26 27 28 29 29 29 29 30 31 31 31 32 33 33 34 35 36 36
18 18 19 20 20 21 21 22 23 23 24 24 24 24 25 26 27 28 29 30 31 31 32 33 33 33 33 33 34 34 34 35 35 36 36 37 38 38
20 20 21 22 23 23 24 25 26 26 27 27 28 28 29 30 30 32 33 34 34 35 36 37 36 37 37 37 38 38 38 38 39 39 39 40 41 41
22 23 23 24 25 26 26 27 28 29 30 30 31 32 33 33 35 36 37 38 38 38 40 41 41 41 41 41 42 43 43 43 43 43 43 44 44 45
24 25 26 27 28 28 29 29 30 32 33 33 34 36 36 37 38 40 40 41 41 41 43 44 45 45 44 44 46 47 47 48 48 48 48 48 48 48
27 28 28 29 30 31 32 33 34 35 36 37 37 38 39 40 42 43 44 45 46 46 47 48 48 49 49 48 49 50 51 52 52 52 52 52 52 52
29 30 31 32 33 34 35 36 37 38 39 40 41 42 43 44 45 46 47 49 49 50 50 51 52 52 53 53 53 54 55 56 57 56 56 56 56 56
33 33 34 35 36 37 39 40 41 42 43 44 45 46 46 47 48 49 50 51 51 52 53 54 54 55 56 57 58 58 59 59 60 60 59 59 59 59
36 36 38 39 40 41 42 43 44 46 47 48 48 49 49 50 50 51 51 52 53 53 54 55 56 57 58 59 60 60 61 61 61 62 62 61 61 61
39 40 41 42 43 44 45 46 47 48 49 50 50 51 51 52 53 54 54 55 55 55 55 56 57 58 59 59 60 60 61 61 61 62 62 62 62 63
42 43 44 45 45 46 47 49 50 50 51 51 52 53 53 54 55 55 56 57 56 56 56 57 58 58 58 58 60 60 60 60 60 60 61 62 61 61
45 46 46 47 48 49 50 51 51 52 52 53 53 54 54 55 56 56 57 58 58 57 57 58 59 59 60 59 57 59 60 59 58 58 58 58 58 57
47 48 48 49 50 51 51 52 52 52 53 54 55 55 56 56 57 58 59 59 59 59 59 59 60 60 61 61 58 55 56 56 56 55 55 55 55 54
49 49 50 51 52 52 53 53 53 53 54 55 56 57 57 58 59 60 61 61 61 61 61 60 60 60 60 58 56 53 51 52 52 52 52 52 51 51
50 51 52 53 53 54 54 54 55 55 56 57 58 59 59 60 61 62 63 63 63 62 61 60 59 58 57 55 52 50 48 47 47 47 47 48 48 48
52 53 54 54 54 54 55 56 57 57 58 59 60 61 61 62 63 64 64 63 63 61 60 58 56 54 53 51 49 47 46 44 43 43 43 44 45 45

GEFSNE_500_meanwind_144.txt.gz
Wind_Speed
11 11 10 9 9 8 8 7 6 6 6 5 4 3 3 2 3 4 5 5 6 6 7 8 8 10 11 12 13 13 15 17 18 20 21 22 23 24
10 10 9 9 8 8 7 7 8 8 7 6 6 5 5 5 5 6 6 7 7 8 8 9 10 11 12 13 14 15 16 17 19 21 23 23 24 25
9 9 8 8 8 8 8 8 8 8 8 7 7 7 7 7 7 8 8 9 9 10 11 11 13 14 15 16 17 18 19 19 20 22 24 25 25 26
10 9 9 8 8 8 8 9 9 9 9 9 9 8 8 9 9 10 10 11 12 13 13 15 16 17 18 19 20 21 22 23 24 24 25 26 27 28
10 10 9 9 9 10 10 10 10 11 11 11 11 10 10 10 11 11 12 13 14 15 16 17 18 19 19 21 22 23 24 25 26 27 28 28 29 30
9 10 10 10 11 11 12 12 12 12 12 12 13 13 13 13 13 13 14 15 17 18 19 20 21 22 23 24 25 25 26 27 28 29 30 31 32 32
10 11 12 12 13 13 14 14 14 14 14 14 15 15 15 15 16 16 17 17 19 20 22 23 24 25 27 28 28 29 30 31 31 32 32 33 34 35
12 12 13 14 14 15 16 15 15 16 16 17 17 18 18 18 19 20 20 21 22 23 25 27 28 29 31 32 33 33 34 34 35 36 36 36 37 37
13 14 14 15 16 17 18 18 18 18 18 19 20 20 21 22 22 23 24 25 27 28 29 30 32 33 35 36 37 37 38 39 39 40 40 41 41 42
14 15 16 17 18 19 19 20 20 20 21 22 23 23 24 25 26 26 28 29 31 33 34 35 36 38 39 40 40 41 42 42 43 44 44 45 45 45
17 17 18 19 20 21 22 22 22 23 24 25 26 27 27 28 28 30 32 33 35 37 38 39 40 41 42 43 44 45 46 46 47 47 48 49 49 49
19 20 21 22 23 23 24 24 25 26 27 28 29 30 30 31 32 35 36 37 38 40 41 42 43 45 44 45 46 48 50 51 52 52 53 53 54 54
21 22 23 24 25 26 27 27 28 29 30 31 32 33 34 35 37 39 40 42 43 43 45 46 47 48 48 47 47 49 52 54 55 57 57 58 58 59
24 25 26 27 28 29 30 31 31 32 34 34 35 36 38 40 42 43 45 46 47 47 48 49 50 51 51 51 51 52 54 57 58 59 61 61 62 62
27 28 29 30 31 32 33 34 35 36 37 38 39 40 42 44 45 46 48 49 50 50 51 52 52 53 52 53 54 54 56 57 59 61 62 62 63 63
30 31 32 33 34 35 36 37 38 39 40 41 42 44 46 47 48 49 49 50 50 50 51 52 52 53 53 55 56 57 59 60 60 61 62 62 63 65
32 33 35 36 37 38 39 39 41 42 43 44 46 47 48 48 49 50 50 50 50 50 50 51 53 55 56 58 59 60 62 63 63 64 64 63 64 65
35 36 38 39 40 40 41 42 43 45 46 47 48 48 49 49 49 50 50 51 51 52 53 54 55 56 58 59 61 62 62 63 63 64 64 65 64 64
38 39 40 41 42 42 43 44 45 47 48 49 49 49 49 50 50 51 52 53 54 55 56 58 59 61 61 61 60 62 62 62 62 62 63 64 63 61
40 41 42 43 43 44 45 46 47 48 49 49 49 50 50 51 52 53 54 56 57 58 59 60 62 63 64 63 61 60 61 62 62 61 61 60 59 58
43 43 44 45 45 46 47 48 49 50 50 50 51 51 53 54 55 56 57 59 60 61 61 62 63 64 65 64 62 60 59 60 60 60 58 57 56 55
44 45 46 47 48 48 49 50 50 51 51 52 53 54 55 56 57 58 59 60 61 62 63 63 63 63 63 62 61 59 58 57 57 56 56 55 54 52
47 48 48 49 50 50 51 51 52 52 53 54 55 56 57 58 59 60 61 62 63 63 63 62 62 61 61 61 60 59 58 56 54 53 52 51 51 50

GEFSNE_500_meanwind_150.txt.gz
Wind_Speed
8 8 8 8 8 7 7 6 6 5 5 5 5 5 4 4 5 5 6 6 6 7 9 10 10 10 11 12 13 13 13 13 14 14 15 16 17 19
8 7 7 7 7 7 7 7 7 6 6 5 6 6 6 6 6 7 7 8 7 8 9 10 11 12 13 14 15 15 16 16 17 17 18 19 20 21
7 7 7 7 7 7 7 7 7 7 6 6 7 7 7 7 7 8 8 9 10 11 11 12 12 13 14 15 16 17 18 19 20 21 21 22 23 24
7 7 7 7 7 7 8 7 8 8 8 8 8 8 8 9 9 9 10 11 12 13 14 15 15 16 17 18 19 20 22 22 23 24 25 26 27 27
6 7 7 8 8 8 8 8 9 9 10 9 9 10 10 10 11 11 12 13 14 15 16 17 18 19 20 21 22 23 25 25 26 27 28 29 30 30
6 7 7 8 9 9 9 9 10 11 11 11 11 11 11 12 13 13 14 15 16 17 18 19 21 22 23 24 25 26 28 29 30 31 31 32 32 33
7 7 8 9 10 11 11 11 12 13 13 13 13 13 14 15 15 16 16 17 18 19 21 22 24 25 27 28 29 30 31 32 33 34 35 35 36 37
9 10 10 11 12 12 12 13 14 15 15 15 16 16 16 17 17 19 19 20 21 22 24 25 27 28 30 32 33 34 34 35 36 37 38 39 40 40
11 12 12 13 13 14 14 15 16 17 18 18 18 19 19 20 20 21 22 23 25 26 27 29 30 32 34 35 36 37 39 40 40 41 42 42 43 43
13 13 14 14 15 16 16 17 18 19 20 20 20 21 21 22 22 24 25 27 28 30 31 32 34 36 37 39 40 41 42 43 44 45 46 47 47 48
15 15 16 17 17 18 19 20 21 21 22 22 22 23 24 25 27 28 29 31 32 33 35 36 37 38 39 41 43 45 46 47 48 49 50 51 51 52
17 18 19 19 20 21 22 22 23 24 24 25 25 26 27 29 30 32 33 34 35 37 39 40 40 41 41 42 45 47 48 50 51 52 53 54 55 56
20 21 22 22 23 24 25 25 26 27 27 28 29 31 32 33 34 36 37 39 40 41 42 43 43 44 45 44 45 48 50 51 52 53 54 55 56 58
22 23 24 25 26 26 27 28 29 30 31 32 33 34 36 37 38 40 41 42 43 44 45 45 46 47 48 48 48 48 49 51 52 54 55 56 58 59
25 26 27 27 28 29 30 31 31 32 33 34 36 37 39 40 41 42 43 45 46 47 47 48 49 49 50 51 50 50 50 51 53 55 57 58 60 62
27 28 29 29 30 31 32 33 34 35 36 37 39 40 41 42 43 44 45 46 47 47 49 50 50 51 51 51 52 52 53 54 55 57 58 59 61 63
29 30 31 32 33 33 34 36 37 38 39 40 41 42 43 44 45 46 47 47 48 48 49 50 51 52 53 53 54 55 56 57 59 60 60 60 61 63
32 32 33 34 35 36 36 38 39 40 40 41 43 44 45 46 47 47 48 49 50 50 51 51 52 53 53 55 57 59 59 60 61 63 64 63 61 62
34 35 36 37 37 38 39 40 41 42 43 44 45 47 47 48 49 49 50 50 51 52 53 54 55 56 56 57 58 61 62 62 62 63 64 64 62 60
36 37 38 39 40 40 41 42 43 44 46 47 48 49 49 50 51 51 51 52 53 54 55 56 58 59 61 61 60 60 62 63 63 63 62 61 60 59
38 39 40 41 42 43 44 45 46 47 48 49 50 50 51 51 52 52 53 54 55 56 57 58 60 62 63 62 62 61 61 63 63 62 61 60 58 56
40 41 42 43 43 45 46 47 48 49 50 51 52 52 52 52 53 54 55 57 58 59 60 61 62 63 63 63 62 62 60 60 60 60 60 60 58 55
42 43 43 44 45 46 48 49 50 51 52 53 53 53 53 54 55 57 59 60 61 61 62 62 62 63 62 62 62 61 60 59 58 57 57 57 57 55

GEFSNE_500_meanwind_156.txt.gz
Wind_Speed
6 6 6 6 6 5 5 4 3 3 3 2 3 3 4 4 5 6 7 7 8 8 9 10 10 11 12 13 13 14 15 16 17 18 18 18 18 19
5 5 6 6 6 5 5 4 4 4 4 4 4 5 6 6 6 6 7 8 9 9 9 10 11 12 13 14 15 16 16 17 19 19 19 20 20 21
5 4 5 5 5 5 5 5 5 5 5 5 6 7 7 8 8 8 8 9 10 10 11 11 12 13 15 16 17 17 18 19 21 22 22 22 23 23
4 4 4 5 5 5 5 5 6 6 6 7 8 8 9 9 9 9 10 11 12 12 13 13 14 15 17 18 20 21 21 22 23 24 25 26 25 26
3 4 4 5 5 6 6 6 7 7 8 9 9 9 10 9 10 11 12 13 14 15 15 16 17 18 19 20 22 23 24 25 26 27 28 29 29 30
4 4 5 6 6 7 7 7 8 9 10 10 11 11 11 12 12 14 15 16 16 17 18 19 20 21 22 23 24 26 27 28 29 30 31 32 32 33
5 5 6 7 7 8 9 9 10 10 11 12 13 13 14 14 15 16 17 18 19 20 21 22 22 23 24 25 27 28 30 31 32 33 34 35 36 37
7 7 8 9 9 10 11 11 12 13 14 15 15 16 17 17 18 19 20 21 22 23 24 24 26 27 28 29 30 31 33 34 35 36 37 38 40 40
9 9 10 11 11 12 13 13 14 15 16 17 18 18 19 20 20 21 22 23 24 25 26 26 28 29 31 32 34 35 36 37 38 39 40 41 42 43
11 12 13 13 14 14 15 15 16 17 18 18 19 20 21 22 23 24 25 26 27 28 29 29 30 32 34 35 36 38 39 40 41 42 43 44 45 46
13 14 15 15 16 17 17 18 19 19 20 21 22 22 24 25 26 27 28 29 29 30 31 33 34 35 36 38 39 40 41 42 44 45 45 46 47 48
15 16 17 17 18 19 20 21 21 22 23 24 24 25 26 28 29 30 31 31 33 33 34 36 37 38 38 39 41 42 43 44 45 47 48 49 50 51
18 18 19 20 20 21 22 23 24 25 25 26 27 28 29 31 32 33 34 34 35 36 37 38 39 40 41 42 42 44 45 46 48 49 50 51 52 53
20 21 21 22 23 23 24 25 26 27 28 29 30 31 32 33 34 35 36 37 38 39 40 40 41 42 43 44 45 46 47 48 50 51 52 53 54 55
22 23 23 24 24 25 26 27 29 30 31 31 32 33 34 35 36 36 37 39 40 41 42 44 45 45 46 47 47 48 49 50 51 53 54 55 56 57
24 25 25 26 26 27 28 30 31 32 33 33 34 35 36 37 37 39 40 41 42 43 44 46 47 48 48 48 49 50 51 52 53 54 55 55 56 57
27 27 27 28 29 30 30 32 33 34 35 35 36 37 39 39 40 41 43 44 45 45 46 46 47 49 50 51 52 53 54 55 55 56 56 56 57 58
29 29 29 30 31 32 33 34 35 36 36 37 38 39 40 41 42 43 45 46 46 47 47 48 49 50 51 52 54 55 56 56 56 56 57 57 57 58
31 31 32 33 34 34 35 36 37 37 38 39 40 41 42 43 45 46 46 47 48 48 49 51 52 53 54 54 55 56 57 57 57 56 57 57 57 57
33 34 34 35 35 36 37 38 39 39 40 41 42 43 44 45 46 47 48 48 49 51 52 53 54 56 57 56 56 56 57 58 57 57 57 57 57 57
35 36 36 37 38 38 39 40 41 42 43 44 45 46 47 47 48 48 49 50 51 53 54 55 57 58 58 58 58 57 57 58 58 58 58 58 57 57
36 37 38 39 40 41 41 42 43 44 45 46 47 48 48 49 49 50 51 52 53 54 56 57 58 58 59 59 59 58 57 57 58 58 58 59 59 58
38 39 40 40 41 42 43 44 45 46 47 48 48 49 49 50 50 51 52 53 55 56 58 58 58 59 60 59 59 58 57 57 57 57 57 57 58 57

GEFSNE_500_meanwind_162.txt.gz
Wind_Speed
5 5 5 5 5 4 4 4 4 5 5 6 6 6 6 6 7 8 7 7 8 8 7 7 7 8 9 10 11 12 12 13 13 14 16 17 18 19
5 5 5 5 5 5 5 5 5 6 6 6 6 6 7 7 7 8 9 9 10 10 10 10 10 11 12 13 13 14 15 16 17 17 18 19 20 21
4 4 4 4 5 6 6 6 6 6 7 7 7 8 8 9 9 9 10 11 11 11 12 12 12 13 14 15 16 16 17 18 19 20 20 21 22 23
3 4 4 5 5 5 6 6 7 7 8 8 8 9 10 10 10 11 11 12 12 12 13 14 15 15 16 17 18 19 20 21 21 22 23 24 24 25
3 4 5 5 5 6 6 7 7 8 8 9 9 10 11 11 12 13 14 14 14 15 16 16 17 18 19 20 20 21 22 23 24 25 26 26 27 28
4 5 5 5 6 7 7 8 9 9 10 10 11 12 12 13 14 15 15 16 16 17 18 19 20 20 21 21 22 23 24 24 25 27 28 29 30 31
6 6 6 7 7 8 9 10 11 11 12 12 13 14 14 15 16 16 17 18 19 20 21 21 22 22 23 24 24 25 26 27 28 29 30 31 32 33
7 8 8 8 9 10 11 12 12 13 13 14 15 16 16 17 18 19 19 21 22 22 23 24 24 25 25 26 27 28 29 30 31 32 33 34 36 37
9 9 9 10 11 12 13 13 14 15 15 16 17 17 18 19 20 21 22 23 24 25 25 26 27 27 28 29 30 31 32 33 34 35 36 38 39 39
10 10 11 12 13 13 14 15 16 16 17 18 19 20 21 21 23 23 24 25 26 27 28 28 28 29 31 32 33 34 35 36 37 38 40 41 41 41
12 13 13 14 15 15 16 17 18 19 20 21 22 22 23 24 25 25 26 27 28 29 30 30 30 31 32 33 34 36 37 38 40 41 42 43 43 43
15 15 16 16 17 17 18 19 20 21 22 23 23 24 25 26 27 28 29 30 30 31 32 32 33 33 33 34 36 37 39 40 42 43 44 45 45 46
17 17 18 18 18 19 20 21 22 23 23 24 25 26 27 28 30 30 31 32 33 33 34 34 35 36 37 37 38 40 41 42 43 45 46 47 48 48
18 19 19 20 20 21 22 23 24 24 25 26 27 28 29 30 31 32 33 34 34 35 36 37 38 39 39 39 40 42 43 45 46 47 48 48 49 50
20 20 21 21 22 23 24 25 26 27 27 28 29 30 31 32 33 34 34 35 36 37 38 39 40 41 42 42 42 43 45 46 48 48 49 50 50 51
22 23 23 24 25 26 27 27 28 29 30 30 31 32 33 34 35 36 36 37 38 39 40 41 42 43 43 44 45 46 48 48 49 50 51 51 52 53
25 25 26 26 27 28 29 29 30 31 32 33 34 35 35 36 37 38 38 39 40 41 42 43 44 45 46 47 47 48 49 50 51 52 52 52 53 54
27 27 28 29 30 30 31 31 32 33 34 35 36 37 37 38 39 40 41 41 42 44 45 45 46 47 48 49 51 51 51 52 52 53 54 54 54 55
29 30 31 31 32 32 33 34 34 35 36 37 38 39 40 40 41 42 43 44 45 46 46 47 48 49 50 51 52 53 54 54 54 54 55 55 55 55
31 32 33 33 34 34 34 35 36 37 38 39 40 41 41 42 43 44 45 46 47 48 48 49 50 51 53 53 53 54 56 56 56 56 56 56 56 56
32 33 34 34 35 35 36 37 38 38 39 40 41 42 43 44 45 46 47 49 49 50 51 51 53 54 55 56 56 56 57 58 59 58 58 58 57 56
34 35 35 36 36 37 38 39 40 41 41 42 43 44 45 46 47 48 50 50 51 52 53 53 54 56 57 58 59 59 59 59 59 60 60 60 59 58
36 36 37 37 38 39 40 41 42 43 44 45 46 47 47 48 50 51 52 52 53 54 54 55 56 57 58 59 59 59 59 59 59 59 59 59 59 58

GEFSNE_500_meanwind_168.txt.gz
Wind_Speed
4 3 3 4 3 3 3 3 3 2 2 2 2 3 4 4 4 4 4 5 5 4 5 6 7 7 8 9 10 11 11 12 13 14 15 15 16 17
3 3 3 3 3 3 3 3 3 3 3 3 3 4 5 5 5 5 5 5 6 6 6 7 8 9 10 12 13 14 14 15 15 16 16 17 17 19
2 2 2 3 3 3 3 3 3 3 3 3 3 4 5 6 6 6 7 7 8 9 9 10 11 11 12 13 14 15 16 16 17 17 18 19 20 21
1 1 2 2 3 3 3 3 4 4 4 5 5 5 6 7 7 8 9 9 10 11 12 12 13 14 14 14 15 16 17 18 18 19 21 22 23 23
1 1 2 2 3 3 3 4 5 5 6 6 7 8 8 9 10 10 11 11 12 13 14 14 15 15 16 16 17 18 19 20 21 22 23 24 25 27
2 2 3 3 4 4 4 5 6 7 7 8 9 10 11 11 12 13 13 13 14 15 16 16 17 18 18 19 20 21 22 23 24 25 26 27 28 29
4 4 5 5 5 5 6 6 7 8 9 10 11 12 12 13 14 14 15 16 16 17 18 19 19 20 21 22 23 24 25 26 27 28 29 30 30 32
6 6 6 7 7 7 8 8 9 9 10 11 12 13 14 15 16 16 17 18 19 20 21 21 22 23 23 24 25 26 27 28 30 31 32 33 34 35
8 8 8 8 9 9 10 10 11 11 12 13 14 15 16 17 18 19 19 20 21 22 23 24 25 26 26 26 27 29 30 31 32 33 35 36 37 38
10 10 10 10 11 11 12 12 13 14 15 16 17 17 18 19 20 21 21 22 23 25 26 26 27 28 28 29 30 31 32 33 34 35 36 37 39 40
12 12 12 13 13 14 14 15 15 16 17 18 19 20 21 22 23 23 23 24 26 27 28 28 29 29 29 30 31 33 34 35 35 36 38 39 40 41
14 14 15 15 15 16 16 17 17 18 19 20 21 22 23 24 25 25 26 26 28 29 30 31 30 30 30 31 33 34 35 37 37 39 40 41 42 42
16 16 16 17 17 18 18 18 19 20 21 22 23 24 25 26 27 28 28 29 30 31 31 31 32 32 33 33 34 36 38 39 40 41 43 44 44 44
18 18 18 19 19 19 20 20 21 22 23 24 25 26 27 28 29 30 31 31 32 33 33 34 34 35 35 36 37 38 39 41 42 43 45 45 46 46
20 20 20 21 22 22 22 23 24 25 26 26 27 28 29 30 31 32 33 34 34 35 36 36 36 37 38 39 39 40 41 42 44 46 46 47 48 48
21 21 22 23 23 23 24 25 26 27 28 28 29 31 32 32 33 34 35 35 35 36 38 38 39 40 41 41 42 43 44 45 46 47 48 49 50 51
23 23 24 24 25 25 26 27 28 29 30 31 32 33 34 35 36 36 37 37 38 38 39 40 42 43 43 44 45 46 47 48 49 50 50 50 52 53
25 25 26 27 27 28 29 30 31 31 32 33 34 35 36 37 38 38 39 39 40 40 41 43 44 45 46 46 48 49 50 51 52 52 53 54 54 56
27 28 28 29 30 31 31 32 32 33 34 35 36 37 38 39 39 40 40 40 41 42 43 45 46 47 48 49 49 51 52 53 54 55 56 57 57 57
29 30 31 31 32 33 33 34 34 35 35 36 37 38 39 40 40 41 42 43 44 45 46 47 49 50 51 52 52 54 55 56 56 56 57 58 58 58
31 32 33 33 34 34 35 35 36 36 37 38 39 40 41 42 43 44 44 45 46 47 48 50 51 53 54 55 55 55 57 58 58 59 59 59 59 58
32 33 33 34 34 35 35 36 37 37 38 39 40 42 43 45 45 46 47 48 49 50 51 53 54 55 56 56 57 57 58 59 60 61 61 61 61 60
32 33 34 35 35 36 37 38 39 39 40 42 43 44 45 46 47 48 49 50 52 53 54 55 56 57 58 59 59 59 60 60 60 61 60 60 60 60

GEFSNE_500_meanwind_174.txt.gz
Wind_Speed
1 1 2 2 2 2 2 3 3 3 3 3 3 3 4 4 5 5 6 6 6 7 8 10 10 10 11 12 12 13 14 14 14 14 14 15 16 17
0 1 2 2 2 3 3 3 3 3 3 4 4 4 5 5 5 6 6 7 8 9 10 11 11 12 13 14 14 14 14 15 16 16 16 17 18 19
1 1 2 3 3 4 4 3 4 4 3 3 5 5 6 6 7 7 8 8 9 10 11 11 12 13 14 14 15 15 16 16 17 18 19 19 20 21
3 3 3 3 4 4 4 5 5 4 5 4 5 6 6 7 8 9 10 10 11 11 12 13 13 14 14 15 16 17 17 18 18 19 20 21 22 23
4 4 5 5 5 5 6 6 6 6 7 8 7 8 8 9 9 10 11 12 13 13 13 14 14 15 16 17 18 18 19 20 20 21 22 23 24 24
6 6 6 7 7 7 7 8 8 8 9 9 10 10 10 11 11 12 13 13 14 15 16 17 17 18 19 20 20 21 22 23 24 24 25 26 26 27
7 7 8 8 9 9 9 9 9 9 10 10 11 11 11 11 12 13 14 15 16 17 18 19 19 20 21 22 23 24 25 25 26 27 27 28 28 28
8 9 9 9 10 10 10 10 11 11 11 12 12 13 13 14 15 16 16 17 18 19 20 21 22 22 23 24 25 26 27 27 27 28 29 29 30 30
10 10 11 11 11 11 12 12 13 13 13 13 14 15 16 16 17 18 18 19 20 21 22 23 24 25 26 27 27 28 28 28 29 29 30 31 31 32
12 12 13 13 14 14 14 15 15 15 15 16 17 17 18 18 19 20 20 21 22 23 24 25 26 27 28 29 29 29 29 30 31 31 31 32 33 34
15 15 16 16 16 16 16 17 17 17 17 18 19 19 20 21 21 22 22 23 24 25 26 27 28 28 29 30 31 31 31 32 33 33 34 35 36 37
17 17 17 17 17 17 17 17 18 19 19 20 20 21 22 22 23 24 24 25 26 27 28 29 30 31 30 30 32 33 34 35 35 36 37 38 39 40
18 18 19 19 19 19 19 19 20 21 21 22 22 23 24 25 25 26 27 28 29 30 31 32 32 33 33 32 33 34 36 37 38 38 39 41 41 42
20 20 20 20 20 21 21 22 22 23 23 23 24 25 26 27 27 28 29 30 31 32 33 34 34 35 34 35 35 36 38 39 40 41 42 43 44 45
21 21 22 21 21 22 23 23 24 24 25 25 26 27 28 28 29 29 31 32 33 34 35 36 37 37 37 37 38 39 40 41 42 43 44 45 46 46
22 22 22 23 23 24 24 25 25 26 27 28 28 29 30 31 31 32 34 35 36 37 38 39 39 39 40 40 41 42 43 44 44 46 46 47 48 49
24 24 24 25 26 26 26 27 27 28 29 30 30 31 32 33 34 35 36 38 38 38 39 40 41 41 42 43 44 45 46 47 48 48 49 50 51 51
26 26 27 27 27 28 28 29 29 30 31 32 32 33 34 36 37 38 39 39 40 40 41 41 42 43 44 46 47 48 48 49 50 51 52 52 53 53
28 28 29 29 30 30 30 31 32 33 33 34 35 36 37 38 38 39 39 40 41 42 42 43 44 45 46 48 48 50 51 51 52 52 53 54 54 54
29 30 30 31 31 31 32 33 34 35 36 36 37 37 38 39 39 40 41 42 43 44 45 45 47 48 49 50 51 52 52 52 52 53 54 54 55 55
29 30 30 30 31 32 34 35 36 36 36 37 38 38 39 40 41 42 43 44 45 46 47 48 49 50 51 52 52 52 53 54 54 54 55 55 55 55
30 30 31 32 33 34 35 36 36 37 38 39 40 41 41 42 43 44 45 46 47 48 49 49 50 51 51 52 52 53 54 55 56 56 57 58 58 57
31 31 32 33 34 35 36 37 38 39 40 41 42 42 43 44 45 46 47 47 48 49 49 50 51 51 52 53 53 54 55 56 56 57 57 58 59 58

GEFSNE_500_meanwind_180.txt.gz
Wind_Speed
1 1 1 0 1 1 2 3 3 4 3 3 4 4 4 4 5 5 6 6 7 8 9 9 10 11 12 13 14 15 16 17 17 17 18 19 19 19
1 1 1 2 2 3 3 4 4 4 4 4 4 5 5 5 6 6 7 8 9 9 10 11 11 12 14 15 15 16 17 17 18 18 19 20 20 21
2 2 2 3 3 4 4 4 4 4 4 5 6 6 6 6 7 8 9 10 10 10 11 13 14 15 15 16 16 16 17 18 19 20 21 21 21 22
4 4 3 4 4 4 4 4 5 5 6 6 7 7 7 7 9 9 10 10 11 11 13 14 15 16 16 17 17 18 19 20 21 22 22 22 22 23
5 5 5 5 5 5 6 6 6 7 7 7 8 8 8 9 10 10 11 12 13 14 15 16 16 17 18 18 19 20 21 22 22 23 23 24 25 26
6 6 6 7 7 7 8 8 8 9 9 9 10 10 10 10 10 11 12 13 14 15 16 17 18 18 19 20 21 22 22 23 24 24 25 26 27 28
7 7 8 8 8 8 9 9 9 10 10 11 11 12 12 12 13 13 14 15 16 17 18 19 19 20 21 22 23 24 24 25 26 27 27 28 29 30
9 9 9 9 9 10 10 10 11 11 11 12 12 13 13 14 14 15 17 18 19 19 20 20 21 22 23 24 24 25 26 27 28 29 29 30 31 31
11 11 11 11 11 11 12 12 12 12 13 13 14 14 15 15 16 18 18 19 20 21 21 22 23 24 25 25 26 27 28 29 30 31 32 32 32 32
12 12 12 12 12 13 13 14 14 14 15 15 16 16 17 17 18 19 20 21 22 23 23 24 25 26 27 28 29 30 31 31 32 33 33 33 34 34
13 13 14 14 15 15 15 15 15 16 17 17 17 18 19 19 20 21 22 23 23 24 25 26 27 28 29 30 31 32 32 33 34 35 35 36 36 36
15 16 16 16 16 17 17 17 17 18 18 18 19 20 21 21 22 23 23 24 25 26 27 28 29 30 30 31 33 33 34 35 36 37 37 37 37 38
17 17 17 17 18 18 18 18 19 18 19 20 20 21 22 23 24 25 25 26 28 29 30 30 31 32 32 33 34 35 36 37 38 39 39 39 39 40
18 19 19 19 19 19 19 19 20 20 21 22 23 24 25 26 26 27 28 29 31 32 33 33 33 34 35 35 36 37 38 39 40 40 40 41 41 42
19 20 20 20 20 20 20 21 22 22 23 24 25 26 27 28 29 30 31 32 33 34 35 35 36 37 37 38 38 39 40 40 41 41 42 42 43 44
20 21 21 21 22 22 23 23 24 25 25 26 27 28 29 30 32 32 33 34 35 36 36 37 38 38 39 40 40 41 42 42 43 44 44 45 45 46
22 22 23 23 24 24 25 26 26 27 28 29 30 31 32 33 34 35 36 36 37 38 39 39 40 41 42 42 43 44 44 45 46 47 47 47 48 49
23 24 25 25 26 27 28 28 29 29 31 32 33 33 34 35 36 37 37 38 38 39 40 41 42 43 43 44 45 46 46 48 49 49 50 50 50 51
24 25 26 26 27 28 29 30 31 31 33 34 34 35 36 37 38 38 39 40 40 41 42 43 44 45 46 46 46 47 48 49 50 50 51 51 52 52
26 26 27 27 28 28 29 30 31 32 33 34 35 36 37 38 38 39 40 41 42 43 44 44 45 46 46 47 48 49 49 50 50 51 52 52 52 52
27 28 28 28 28 29 30 31 32 32 34 35 35 36 37 38 39 40 41 43 43 44 45 45 46 47 47 48 49 50 51 52 52 52 52 52 51 52
28 28 28 28 29 29 30 31 32 33 34 35 36 37 38 39 40 41 42 44 44 45 46 46 47 49 49 50 51 52 52 52 52 52 53 53 53 53
27 28 28 28 28 29 30 32 33 34 35 36 37 38 39 40 42 43 43 44 45 46 47 48 49 51 51 52 52 52 52 52 52 52 53 53 54 53

GEFSNE_500_meanwind_186.txt.gz
Wind_Speed
3 3 3 3 4 4 5 6 6 6 6 6 6 6 7 7 7 7 7 7 7 7 9 9 10 11 11 12 12 13 14 15 16 17 17 18 19 20
4 4 4 4 4 5 5 6 6 6 6 7 7 7 7 8 7 7 8 8 8 9 10 11 11 12 12 13 14 14 15 16 17 17 18 19 20 21
4 5 5 6 5 6 6 7 7 7 8 8 8 7 8 8 9 9 9 10 10 11 12 12 12 13 13 14 14 15 16 17 18 18 19 20 21 22
5 5 6 6 6 6 6 7 8 8 8 9 8 8 8 9 10 10 11 11 12 12 13 13 13 14 14 15 16 17 17 18 19 20 21 22 23 24
6 6 7 7 7 7 7 7 8 9 9 9 10 9 9 10 11 12 12 13 13 13 14 14 15 15 16 17 18 19 19 20 21 21 22 23 24 25
7 7 7 7 8 8 8 8 9 9 10 10 10 10 10 11 12 12 12 13 13 14 15 15 16 17 18 19 20 21 21 22 22 23 24 25 26 27
8 8 9 9 10 10 10 10 10 11 11 11 11 12 12 13 13 14 13 14 15 16 16 18 18 19 19 21 21 22 23 23 24 25 26 27 28 29
10 11 11 11 11 11 12 12 12 12 13 13 13 13 14 14 15 15 15 16 17 18 19 20 20 21 22 23 23 24 25 26 26 27 28 28 29 30
13 13 13 13 13 13 13 13 13 14 14 14 15 15 16 16 16 16 17 18 18 19 19 21 22 23 23 24 25 26 27 28 28 29 30 30 31 32
14 14 14 14 15 15 15 15 15 16 15 15 16 16 17 17 17 18 18 19 20 21 22 23 24 25 25 26 27 28 29 29 30 30 31 32 33 34
15 15 15 15 16 16 16 16 17 16 16 16 16 17 18 18 19 20 21 21 22 22 23 24 25 26 27 29 29 30 31 31 32 33 34 35 36 37
15 16 16 16 17 17 17 17 17 17 17 18 19 19 20 20 21 22 22 23 24 24 25 26 28 29 29 30 31 32 33 33 34 35 37 38 38 38
16 17 17 17 18 18 18 18 19 19 19 20 20 21 22 23 23 24 24 25 26 27 28 29 30 31 32 32 33 33 34 36 37 38 39 40 40 40
18 18 18 19 19 20 20 20 21 21 22 22 23 23 24 24 25 26 26 27 28 30 31 32 33 33 34 35 35 36 37 38 39 40 41 41 42 42
19 20 20 20 20 21 22 22 23 24 24 25 25 26 26 27 28 28 29 31 32 33 33 34 35 36 37 38 38 39 40 41 41 42 43 44 44 44
20 21 21 22 22 22 23 24 25 25 26 27 27 27 28 28 29 30 32 33 34 35 36 37 37 38 39 40 40 41 42 43 43 44 45 45 46 46
21 22 22 23 24 24 25 25 26 26 27 28 28 28 29 31 32 33 34 35 36 36 37 37 39 39 40 41 41 42 42 43 44 45 45 46 46 47
23 23 24 24 25 26 26 26 27 28 28 29 30 31 32 33 34 35 35 36 36 37 38 38 39 40 41 41 43 43 44 45 46 46 47 48 48 48
25 25 25 25 26 26 27 27 28 29 30 31 32 33 34 35 35 36 36 36 37 38 38 39 40 41 42 42 43 44 45 46 47 47 48 48 48 49
26 27 27 27 27 27 27 28 30 31 31 32 33 34 35 35 35 36 36 37 38 38 39 40 41 42 43 44 44 45 46 47 48 48 48 48 48 49
27 28 28 28 28 29 29 30 31 31 32 33 33 34 35 35 36 36 37 38 39 39 40 41 42 43 44 45 45 46 47 48 49 49 49 48 48 48
26 26 27 27 28 29 29 30 31 32 33 33 33 34 35 35 36 37 38 39 40 40 41 42 44 44 45 46 47 47 47 48 48 49 50 50 50 49
25 26 27 28 28 29 30 31 32 33 33 33 34 34 35 36 37 38 39 40 41 43 44 45 45 46 47 47 48 48 48 48 48 49 49 50 50 50

GEFSNE_500_meanwind_192.txt.gz
Wind_Speed
1 1 2 2 3 3 3 4 5 5 5 6 6 5 5 5 6 6 7 8 8 8 9 9 9 9 9 10 10 11 11 12 13 14 15 15 16 16
2 3 3 2 3 3 4 5 6 6 6 7 6 5 6 6 7 7 8 8 9 9 9 10 10 10 10 11 12 13 14 14 15 15 15 16 17 18
3 3 4 4 4 5 5 5 6 6 7 7 6 7 7 8 8 9 9 10 10 10 11 11 11 11 12 12 13 14 14 15 16 16 17 18 18 18
4 4 5 5 5 6 6 6 6 6 7 7 8 8 8 9 9 10 11 11 12 12 11 12 12 13 13 14 15 15 16 17 18 19 19 19 20 21
5 5 5 6 6 6 7 7 7 8 9 9 9 9 10 10 10 11 11 12 12 12 12 13 13 14 15 16 16 17 18 19 19 20 20 21 22 23
6 6 6 6 6 7 8 9 9 9 9 10 10 10 11 12 12 12 12 13 13 14 14 15 15 16 17 17 17 18 19 20 21 21 22 23 24 25
7 7 8 8 9 9 10 10 10 10 11 11 12 12 13 13 13 13 13 14 15 16 16 16 17 18 18 19 19 19 20 22 23 24 24 25 26 26
10 10 10 10 11 11 11 11 12 12 13 13 14 14 14 14 14 15 15 15 16 16 17 18 19 19 20 20 21 22 23 24 25 26 27 27 27 28
11 11 11 12 12 13 13 13 13 13 14 14 15 15 15 16 16 16 17 17 18 18 19 20 21 22 23 23 24 25 26 27 28 28 29 29 30 31
12 13 13 13 13 13 13 14 14 15 15 15 16 16 16 16 17 17 18 19 20 21 21 22 23 24 25 26 26 27 28 29 29 30 31 32 33 34
13 13 13 14 14 14 14 15 15 16 16 17 17 18 18 18 18 19 20 21 22 23 23 24 25 26 27 28 29 29 30 30 31 32 34 35 36 37
14 14 14 15 16 16 16 16 17 18 18 19 19 20 20 20 21 21 22 23 24 24 25 26 27 27 27 29 30 31 32 33 34 36 37 37 38 39
15 16 16 17 17 17 18 18 19 20 20 21 22 22 23 22 23 23 24 25 25 26 27 28 29 30 30 31 32 34 35 36 37 38 39 40 41 42
16 16 16 17 18 18 20 20 21 22 22 23 24 24 24 24 24 25 26 27 28 29 30 31 32 33 33 34 35 36 37 38 39 40 40 41 42 43
18 18 18 19 19 20 21 22 22 22 23 24 25 25 25 26 27 28 28 29 30 32 33 34 35 35 36 37 38 38 39 40 40 41 41 42 42 43
19 20 20 20 21 21 22 22 23 23 24 25 26 27 27 28 29 29 30 32 33 34 35 35 36 37 38 38 39 39 40 40 41 41 42 42 42 43
21 21 21 21 22 23 23 24 25 26 27 28 28 28 29 30 31 31 33 34 34 34 35 36 37 38 38 39 39 40 41 41 42 42 42 42 43 43
22 22 23 24 24 25 25 26 27 28 28 29 30 30 30 31 32 33 34 35 35 35 36 36 37 38 38 39 39 40 41 42 43 43 43 43 43 43
22 23 24 25 25 26 26 28 29 29 30 30 30 30 31 32 33 34 35 35 35 36 37 38 38 39 39 39 40 41 42 43 43 44 44 44 44 44
23 24 25 25 26 27 28 29 30 30 30 30 31 31 31 32 34 35 35 36 36 37 38 39 39 40 41 41 41 42 43 44 45 45 45 45 45 46
25 25 26 26 27 28 29 29 29 29 30 31 31 32 33 34 35 36 36 37 37 38 38 39 40 42 42 43 43 44 45 46 46 47 46 46 46 47
26 26 27 28 28 28 29 29 30 30 31 32 33 34 35 35 36 37 37 37 38 39 40 41 42 43 45 45 45 46 47 48 48 49 48 48 48 47
26 27 27 28 28 29 29 29 30 31 32 33 34 35 36 37 37 37 38 39 40 41 42 43 44 46 46 47 47 48 49 49 49 49 49 48 48 47